PAY1985 KDCA-MUCU

Flight info

Callsign PAY1985
Flight time 2h 46m
Altitude 29000
Route AMEEE1 SCOOB HCM HURTS Q107 ALINN/N0464F320 Q107 GARIC AR3 CARPX Y307 CASPR AR3 NUCAR Y307 ENAMO/N0469F330 UR625 PIBLO UL210 AVADU KINIS5B
Aircraft B753/M-SDE2E3FGHIJ3J4J7RWXY/LB1

Departure

Time 2026-04-26 17:55
Airport Ronald Reagan Washington National Airport (KDCA)

Arrival

Time 2026-04-26 20:41
Airport Antonio Maceo International Airport (MUCU)
Time Latitude Longitude Altitude Speed Heading
2026-04-26 17:21 38.84996 -77.04028 25 ft 0 kts 277°
2026-04-26 17:45 38.84996 -77.04012 24 ft 2 kts 260°
2026-04-26 17:45 38.85001 -77.03994 24 ft 2 kts 240°
2026-04-26 17:45 38.85009 -77.03979 24 ft 2 kts 221°
2026-04-26 17:45 38.85022 -77.03970 24 ft 2 kts 202°
2026-04-26 17:46 38.85039 -77.03965 24 ft 2 kts 178°
2026-04-26 17:46 38.85053 -77.03967 24 ft 2 kts 175°
2026-04-26 17:46 38.85068 -77.03968 24 ft 2 kts 177°
2026-04-26 17:46 38.85084 -77.03970 24 ft 2 kts 176°
2026-04-26 17:47 38.85097 -77.03970 24 ft 0 kts 176°
2026-04-26 17:49 38.85088 -77.03970 24 ft 6 kts 176°
2026-04-26 17:50 38.85011 -77.03963 24 ft 14 kts 176°
2026-04-26 17:50 38.84917 -77.03952 24 ft 13 kts 165°
2026-04-26 17:50 38.84853 -77.03894 24 ft 10 kts 158°
2026-04-26 17:50 38.84782 -77.03880 24 ft 11 kts 174°
2026-04-26 17:51 38.84702 -77.03871 24 ft 12 kts 174°
2026-04-26 17:51 38.84610 -77.03861 24 ft 13 kts 175°
2026-04-26 17:51 38.84511 -77.03853 24 ft 15 kts 176°
2026-04-26 17:51 38.84406 -77.03842 24 ft 15 kts 175°
2026-04-26 17:52 38.84311 -77.03831 24 ft 12 kts 175°
2026-04-26 17:52 38.84277 -77.03826 24 ft 3 kts 171°
2026-04-26 17:52 38.84243 -77.03809 24 ft 5 kts 143°
2026-04-26 17:52 38.84232 -77.03796 24 ft 0 kts 135°
2026-04-26 17:54 38.84226 -77.03789 24 ft 5 kts 135°
2026-04-26 17:54 38.84207 -77.03715 24 ft 10 kts 58°
2026-04-26 17:54 38.84282 -77.03690 24 ft 23 kts 358°
2026-04-26 17:55 38.84624 -77.03723 25 ft 86 kts 355°
2026-04-26 17:55 38.86243 -77.03897 237 ft 172 kts 357°
2026-04-26 17:55 38.87497 -77.04134 717 ft 189 kts 337°
2026-04-26 17:56 38.88488 -77.05232 1190 ft 204 kts 318°
2026-04-26 17:56 38.90503 -77.08177 2045 ft 246 kts 302°
2026-04-26 17:57 38.92433 -77.11391 2087 ft 231 kts 330°
2026-04-26 17:57 38.93720 -77.12478 2238 ft 233 kts 329°
2026-04-26 17:57 38.95032 -77.13565 2414 ft 247 kts 334°
2026-04-26 17:57 38.96735 -77.14680 2609 ft 244 kts 344°
2026-04-26 17:58 39.00876 -77.13074 3232 ft 242 kts 36°
2026-04-26 17:59 39.03298 -77.10550 4204 ft 239 kts 55°
2026-04-26 17:59 39.03849 -77.08357 4984 ft 251 kts 86°
2026-04-26 17:59 39.03765 -77.06068 5641 ft 261 kts 91°
2026-04-26 17:59 39.03622 -77.03748 6271 ft 263 kts 91°
2026-04-26 18:00 39.03468 -77.01451 6880 ft 266 kts 91°
2026-04-26 18:00 39.03296 -76.99091 7517 ft 270 kts 92°
2026-04-26 18:00 39.02877 -76.96738 8214 ft 278 kts 115°
2026-04-26 18:00 39.01671 -76.94835 8971 ft 285 kts 143°
2026-04-26 18:01 38.99939 -76.93776 9698 ft 289 kts 161°
2026-04-26 18:01 38.98067 -76.93037 10365 ft 292 kts 161°
2026-04-26 18:01 38.96141 -76.92268 11025 ft 296 kts 161°
2026-04-26 18:01 38.94185 -76.91507 11604 ft 303 kts 162°
2026-04-26 18:02 38.92124 -76.90714 12188 ft 309 kts 162°
2026-04-26 18:02 38.90751 -76.90190 12570 ft 314 kts 162°
2026-04-26 18:02 38.87936 -76.89117 13323 ft 322 kts 162°
2026-04-26 18:02 38.85811 -76.88313 13835 ft 329 kts 162°
2026-04-26 18:03 38.83613 -76.87476 14353 ft 336 kts 162°
2026-04-26 18:03 38.81423 -76.86648 14871 ft 343 kts 162°
2026-04-26 18:03 38.79147 -76.85784 15406 ft 349 kts 162°
2026-04-26 18:03 38.76823 -76.84905 15941 ft 355 kts 162°
2026-04-26 18:04 38.74428 -76.83998 16484 ft 361 kts 163°
2026-04-26 18:04 38.72036 -76.83094 17018 ft 365 kts 163°
2026-04-26 18:04 38.69592 -76.82172 17527 ft 371 kts 163°
2026-04-26 18:05 38.64605 -76.80291 18522 ft 380 kts 163°
2026-04-26 18:05 38.62085 -76.79342 19010 ft 384 kts 163°
2026-04-26 18:05 38.59526 -76.78379 19497 ft 387 kts 164°
2026-04-26 18:05 38.56931 -76.77402 19988 ft 390 kts 164°
2026-04-26 18:06 38.54314 -76.76418 20449 ft 394 kts 164°
2026-04-26 18:06 38.51637 -76.75414 20895 ft 398 kts 164°
2026-04-26 18:06 38.48963 -76.74410 21332 ft 402 kts 165°
2026-04-26 18:06 38.46289 -76.73407 21764 ft 405 kts 165°
2026-04-26 18:07 38.43565 -76.72385 22201 ft 408 kts 165°
2026-04-26 18:07 38.40853 -76.71461 22625 ft 409 kts 172°
2026-04-26 18:07 38.38059 -76.70966 23050 ft 410 kts 175°
2026-04-26 18:07 38.36190 -76.70659 23304 ft 412 kts 175°
2026-04-26 18:08 38.32392 -76.70032 23819 ft 417 kts 175°
2026-04-26 18:08 38.29531 -76.69566 24205 ft 420 kts 175°
2026-04-26 18:08 38.26650 -76.69099 24593 ft 423 kts 176°
2026-04-26 18:08 38.23711 -76.68624 24961 ft 427 kts 176°
2026-04-26 18:09 38.20729 -76.68143 25332 ft 430 kts 176°
2026-04-26 18:09 38.17745 -76.67664 25708 ft 433 kts 176°
2026-04-26 18:09 38.14749 -76.67182 26085 ft 436 kts 176°
2026-04-26 18:09 38.11710 -76.66694 26466 ft 439 kts 176°
2026-04-26 18:10 38.08717 -76.66241 26837 ft 440 kts 179°
2026-04-26 18:10 38.05646 -76.66048 27187 ft 442 kts 181°
2026-04-26 18:10 38.02638 -76.65879 27513 ft 445 kts 181°
2026-04-26 18:10 37.99509 -76.65686 27851 ft 448 kts 181°
2026-04-26 18:11 37.96413 -76.65489 28183 ft 450 kts 181°
2026-04-26 18:11 37.93290 -76.65286 28503 ft 453 kts 181°
2026-04-26 18:11 37.90147 -76.65080 28818 ft 455 kts 181°
2026-04-26 18:11 37.87255 -76.64891 28971 ft 461 kts 181°
2026-04-26 18:12 37.83928 -76.64669 29191 ft 463 kts 181°
2026-04-26 18:12 37.77581 -76.64248 29199 ft 462 kts 181°
2026-04-26 18:13 37.71251 -76.63825 29213 ft 458 kts 181°
2026-04-26 18:13 37.64876 -76.63403 29137 ft 456 kts 181°
2026-04-26 18:14 37.58596 -76.64021 29144 ft 451 kts 198°
2026-04-26 18:14 37.52939 -76.67131 29164 ft 443 kts 216°
2026-04-26 18:15 37.48488 -76.72390 29163 ft 438 kts 234°
2026-04-26 18:15 37.45605 -76.79125 29157 ft 438 kts 242°
2026-04-26 18:16 37.41970 -76.85215 29160 ft 440 kts 226°
2026-04-26 18:16 37.35459 -76.93386 29142 ft 441 kts 226°
2026-04-26 18:17 37.30661 -76.98251 29149 ft 445 kts 212°
2026-04-26 18:17 37.25030 -77.01591 29138 ft 449 kts 204°
2026-04-26 18:18 37.19127 -77.04194 29133 ft 450 kts 201°
2026-04-26 18:18 37.13132 -77.06480 29129 ft 452 kts 199°
2026-04-26 18:19 37.07024 -77.08654 29125 ft 452 kts 199°
2026-04-26 18:19 37.00965 -77.10741 29121 ft 452 kts 199°
2026-04-26 18:20 36.94787 -77.12837 29117 ft 452 kts 198°
2026-04-26 18:20 36.89651 -77.14569 29121 ft 455 kts 198°
2026-04-26 18:21 36.82483 -77.16972 29130 ft 457 kts 198°
2026-04-26 18:21 36.76346 -77.19025 29130 ft 456 kts 198°
2026-04-26 18:22 36.70248 -77.21061 29130 ft 455 kts 198°
2026-04-26 18:22 36.64137 -77.23099 29132 ft 454 kts 197°
2026-04-26 18:23 36.58037 -77.25127 29131 ft 454 kts 197°
2026-04-26 18:23 36.51937 -77.27148 29131 ft 453 kts 197°
2026-04-26 18:24 36.45834 -77.29170 29125 ft 452 kts 197°
2026-04-26 18:24 36.39781 -77.31180 29120 ft 450 kts 197°
2026-04-26 18:25 36.33744 -77.33167 29116 ft 450 kts 197°
2026-04-26 18:25 36.27678 -77.35168 29114 ft 449 kts 197°
2026-04-26 18:26 36.21665 -77.37156 29109 ft 448 kts 197°
2026-04-26 18:26 36.15611 -77.39153 29108 ft 448 kts 197°
2026-04-26 18:27 36.09569 -77.41142 29102 ft 448 kts 197°
2026-04-26 18:27 36.03495 -77.43131 29099 ft 447 kts 197°
2026-04-26 18:28 35.97474 -77.45101 29097 ft 447 kts 197°
2026-04-26 18:28 35.91466 -77.47064 29190 ft 445 kts 197°
2026-04-26 18:29 35.85547 -77.48997 29392 ft 447 kts 197°
2026-04-26 18:29 35.82500 -77.49990 29508 ft 446 kts 197°
2026-04-26 18:29 35.79510 -77.50964 29624 ft 445 kts 197°
2026-04-26 18:30 35.76532 -77.51933 29740 ft 444 kts 197°
2026-04-26 18:30 35.73537 -77.52912 29875 ft 443 kts 198°
2026-04-26 18:30 35.70564 -77.53935 30015 ft 442 kts 198°
2026-04-26 18:30 35.67601 -77.54956 30154 ft 441 kts 198°
2026-04-26 18:31 35.64622 -77.55981 30294 ft 440 kts 198°
2026-04-26 18:31 35.61667 -77.56997 30428 ft 439 kts 198°
2026-04-26 18:31 35.58746 -77.58001 30560 ft 439 kts 198°
2026-04-26 18:31 35.55774 -77.59021 30695 ft 439 kts 198°
2026-04-26 18:32 35.52791 -77.60044 30834 ft 439 kts 198°
2026-04-26 18:32 35.49844 -77.61054 30967 ft 439 kts 198°
2026-04-26 18:32 35.46920 -77.62055 31080 ft 439 kts 198°
2026-04-26 18:32 35.43957 -77.63069 31094 ft 440 kts 198°
2026-04-26 18:33 35.38024 -77.65096 31072 ft 437 kts 197°
2026-04-26 18:33 35.32258 -77.67064 31073 ft 438 kts 197°
2026-04-26 18:34 35.26390 -77.69064 31060 ft 438 kts 198°
2026-04-26 18:34 35.20475 -77.71076 31057 ft 438 kts 198°
2026-04-26 18:35 35.14594 -77.73074 31057 ft 436 kts 198°
2026-04-26 18:35 35.08761 -77.75053 31055 ft 435 kts 198°
2026-04-26 18:36 35.02885 -77.77044 31049 ft 437 kts 198°
2026-04-26 18:36 34.97022 -77.79027 31045 ft 438 kts 198°
2026-04-26 18:37 34.91154 -77.81008 31040 ft 439 kts 198°
2026-04-26 18:37 34.85210 -77.82698 31050 ft 443 kts 190°
2026-04-26 18:38 34.79094 -77.83700 31038 ft 444 kts 191°
2026-04-26 18:38 34.72931 -77.84699 31035 ft 445 kts 191°
2026-04-26 18:39 34.66766 -77.85686 31031 ft 446 kts 191°
2026-04-26 18:39 34.60599 -77.86668 31026 ft 447 kts 191°
2026-04-26 18:40 34.54423 -77.87648 31021 ft 448 kts 191°
2026-04-26 18:40 34.48251 -77.88626 31017 ft 448 kts 191°
2026-04-26 18:41 34.42033 -77.89610 31012 ft 449 kts 191°
2026-04-26 18:41 34.35841 -77.90588 31001 ft 450 kts 191°
2026-04-26 18:42 34.29589 -77.91575 30989 ft 451 kts 191°
2026-04-26 18:42 34.23387 -77.92551 30979 ft 451 kts 191°
2026-04-26 18:43 34.17147 -77.93531 30971 ft 452 kts 191°
2026-04-26 18:43 34.10877 -77.94515 30970 ft 452 kts 191°
2026-04-26 18:44 34.04630 -77.95495 30970 ft 452 kts 191°
2026-04-26 18:44 33.98389 -77.96471 30966 ft 452 kts 191°
2026-04-26 18:45 33.92155 -77.97446 30963 ft 453 kts 191°
2026-04-26 18:45 33.85875 -77.97984 30973 ft 457 kts 181°
2026-04-26 18:46 33.79303 -77.97622 30957 ft 458 kts 181°
2026-04-26 18:46 33.72913 -77.97254 30956 ft 458 kts 181°
2026-04-26 18:47 33.66516 -77.96875 30956 ft 458 kts 181°
2026-04-26 18:47 33.60126 -77.96492 30957 ft 459 kts 181°
2026-04-26 18:48 33.53719 -77.96107 30958 ft 459 kts 181°
2026-04-26 18:48 33.47270 -77.95719 30958 ft 460 kts 181°
2026-04-26 18:49 33.40873 -77.95335 30959 ft 460 kts 181°
2026-04-26 18:49 33.34450 -77.94949 30969 ft 461 kts 181°
2026-04-26 18:50 33.28036 -77.94563 30977 ft 462 kts 181°
2026-04-26 18:50 33.21579 -77.94178 30976 ft 463 kts 181°
2026-04-26 18:51 33.15128 -77.93793 30974 ft 463 kts 181°
2026-04-26 18:51 33.08657 -77.93407 30974 ft 465 kts 181°
2026-04-26 18:52 33.02208 -77.93024 30974 ft 466 kts 181°
2026-04-26 18:52 32.95623 -77.92632 30973 ft 467 kts 181°
2026-04-26 18:53 32.89108 -77.92245 30973 ft 468 kts 181°
2026-04-26 18:53 32.82605 -77.91859 30973 ft 469 kts 181°
2026-04-26 18:54 32.76071 -77.91472 30972 ft 470 kts 181°
2026-04-26 18:54 32.69505 -77.91084 30973 ft 471 kts 181°
2026-04-26 18:55 32.62937 -77.90696 30973 ft 472 kts 181°
2026-04-26 18:55 32.56369 -77.90309 30975 ft 473 kts 181°
2026-04-26 18:56 32.49742 -77.89919 30977 ft 474 kts 181°
2026-04-26 18:56 32.43158 -77.89532 30977 ft 476 kts 181°
2026-04-26 18:57 32.37600 -77.89205 30977 ft 476 kts 181°
2026-04-26 18:57 32.29805 -77.88748 30974 ft 478 kts 181°
2026-04-26 18:58 32.23147 -77.88358 30972 ft 478 kts 181°
2026-04-26 18:58 32.16467 -77.87968 30972 ft 479 kts 180°
2026-04-26 18:59 32.09774 -77.87578 30972 ft 479 kts 180°
2026-04-26 18:59 32.03131 -77.87191 30968 ft 479 kts 180°
2026-04-26 19:00 31.96452 -77.86802 30966 ft 479 kts 180°
2026-04-26 19:00 31.89798 -77.86415 30970 ft 480 kts 180°
2026-04-26 19:01 31.83064 -77.85905 30971 ft 481 kts 179°
2026-04-26 19:01 31.76309 -77.85379 30970 ft 480 kts 179°
2026-04-26 19:02 31.69592 -77.84857 30970 ft 480 kts 179°
2026-04-26 19:02 31.63929 -77.84418 30970 ft 480 kts 179°
2026-04-26 19:03 31.56077 -77.83810 30969 ft 480 kts 180°
2026-04-26 19:03 31.49263 -77.83282 30969 ft 481 kts 180°
2026-04-26 19:04 31.42429 -77.82755 30969 ft 481 kts 180°
2026-04-26 19:04 31.35657 -77.82233 30969 ft 481 kts 180°
2026-04-26 19:05 31.25459 -77.81449 30968 ft 481 kts 180°
2026-04-26 19:06 31.18691 -77.80929 30968 ft 481 kts 180°
2026-04-26 19:06 31.11984 -77.80415 30968 ft 481 kts 180°
2026-04-26 19:07 31.05274 -77.79901 30967 ft 482 kts 180°
2026-04-26 19:07 30.98589 -77.79389 30966 ft 483 kts 180°
2026-04-26 19:08 30.91879 -77.78877 30964 ft 483 kts 180°
2026-04-26 19:08 30.85158 -77.78365 30960 ft 484 kts 180°
2026-04-26 19:09 30.78413 -77.77851 30959 ft 484 kts 180°
2026-04-26 19:09 30.71688 -77.77340 30954 ft 485 kts 180°
2026-04-26 19:10 30.64943 -77.76827 30950 ft 485 kts 179°
2026-04-26 19:10 30.58164 -77.76313 30949 ft 487 kts 179°
2026-04-26 19:11 30.51429 -77.75803 30949 ft 488 kts 179°
2026-04-26 19:11 30.44651 -77.75291 30949 ft 488 kts 179°
2026-04-26 19:12 30.37848 -77.74839 30950 ft 488 kts 181°
2026-04-26 19:12 30.30415 -77.74453 30949 ft 489 kts 181°
2026-04-26 19:13 30.23575 -77.74095 30950 ft 490 kts 181°
2026-04-26 19:13 30.16699 -77.73736 30950 ft 490 kts 181°
2026-04-26 19:14 30.09764 -77.73374 30952 ft 491 kts 180°
2026-04-26 19:14 30.02821 -77.73013 30952 ft 491 kts 180°
2026-04-26 19:15 29.95970 -77.72656 30951 ft 491 kts 180°
2026-04-26 19:15 29.89074 -77.72297 30950 ft 491 kts 180°
2026-04-26 19:16 29.82140 -77.71937 30947 ft 491 kts 180°
2026-04-26 19:16 29.75329 -77.71584 30947 ft 491 kts 180°
2026-04-26 19:17 29.68504 -77.71230 30947 ft 490 kts 180°
2026-04-26 19:17 29.61650 -77.70875 30947 ft 491 kts 180°
2026-04-26 19:18 29.54819 -77.70523 30947 ft 491 kts 180°
2026-04-26 19:18 29.47991 -77.70171 30945 ft 487 kts 180°
2026-04-26 19:19 29.41167 -77.69820 30947 ft 482 kts 180°
2026-04-26 19:19 29.34469 -77.69477 30951 ft 483 kts 180°
2026-04-26 19:20 29.27727 -77.69132 30954 ft 482 kts 180°
2026-04-26 19:20 29.21031 -77.68789 30964 ft 481 kts 180°
2026-04-26 19:21 29.14299 -77.68445 30973 ft 481 kts 180°
2026-04-26 19:21 29.07746 -77.68110 30973 ft 481 kts 180°
2026-04-26 19:22 29.01046 -77.67769 30973 ft 480 kts 180°
2026-04-26 19:22 28.94385 -77.67429 30972 ft 480 kts 180°
2026-04-26 19:23 28.87684 -77.67089 30969 ft 480 kts 180°
2026-04-26 19:23 28.81031 -77.66751 30969 ft 479 kts 180°
2026-04-26 19:24 28.74336 -77.66412 30969 ft 479 kts 180°
2026-04-26 19:24 28.64353 -77.65906 30970 ft 479 kts 180°
2026-04-26 19:25 28.59883 -77.65681 30968 ft 479 kts 180°
2026-04-26 19:25 28.51008 -77.65232 30956 ft 479 kts 180°
2026-04-26 19:26 28.44343 -77.64896 30952 ft 479 kts 180°
2026-04-26 19:26 28.37483 -77.64551 30953 ft 479 kts 180°
2026-04-26 19:27 28.30523 -77.64201 30953 ft 479 kts 180°
2026-04-26 19:27 28.23664 -77.63856 30952 ft 479 kts 180°
2026-04-26 19:28 28.16765 -77.63509 30952 ft 479 kts 180°
2026-04-26 19:28 28.09958 -77.63142 30954 ft 480 kts 179°
2026-04-26 19:29 28.03167 -77.62726 30955 ft 480 kts 179°
2026-04-26 19:29 27.96359 -77.62311 30956 ft 480 kts 179°
2026-04-26 19:30 27.89548 -77.61897 30959 ft 480 kts 179°
2026-04-26 19:30 27.83955 -77.61556 30960 ft 480 kts 179°
2026-04-26 19:31 27.76161 -77.61083 30964 ft 480 kts 179°
2026-04-26 19:31 27.69469 -77.60677 30965 ft 479 kts 179°
2026-04-26 19:32 27.62842 -77.60275 30966 ft 479 kts 179°
2026-04-26 19:32 27.56178 -77.59872 30966 ft 479 kts 179°
2026-04-26 19:33 27.49528 -77.59470 30968 ft 478 kts 179°
2026-04-26 19:33 27.42870 -77.59069 30969 ft 478 kts 179°
2026-04-26 19:34 27.36185 -77.58666 30970 ft 478 kts 179°
2026-04-26 19:34 27.29545 -77.58266 30971 ft 477 kts 179°
2026-04-26 19:35 27.22891 -77.57866 30972 ft 477 kts 179°
2026-04-26 19:35 27.16186 -77.57464 30972 ft 476 kts 179°
2026-04-26 19:36 27.11763 -77.57198 30972 ft 476 kts 179°
2026-04-26 19:36 27.02928 -77.56669 30971 ft 476 kts 179°
2026-04-26 19:37 26.96328 -77.56274 30971 ft 475 kts 179°
2026-04-26 19:37 26.89672 -77.55876 30971 ft 474 kts 179°
2026-04-26 19:38 26.83095 -77.55483 30970 ft 474 kts 179°
2026-04-26 19:38 26.76488 -77.55090 30971 ft 474 kts 180°
2026-04-26 19:39 26.69863 -77.54694 30972 ft 474 kts 180°
2026-04-26 19:39 26.63296 -77.54304 30973 ft 474 kts 180°
2026-04-26 19:40 26.56682 -77.53911 30974 ft 474 kts 180°
2026-04-26 19:40 26.50096 -77.53520 30976 ft 474 kts 180°
2026-04-26 19:41 26.43452 -77.53127 30978 ft 475 kts 180°
2026-04-26 19:41 26.39008 -77.52863 30979 ft 475 kts 180°
2026-04-26 19:42 26.30067 -77.52334 30981 ft 475 kts 180°
2026-04-26 19:42 26.23320 -77.51936 30982 ft 476 kts 180°
2026-04-26 19:43 26.16573 -77.51537 30982 ft 475 kts 180°
2026-04-26 19:43 26.09762 -77.51136 30983 ft 475 kts 180°
2026-04-26 19:44 26.02895 -77.50732 30984 ft 475 kts 180°
2026-04-26 19:44 25.96164 -77.50337 30981 ft 475 kts 180°
2026-04-26 19:45 25.89332 -77.49934 30981 ft 476 kts 180°
2026-04-26 19:45 25.82640 -77.49541 30983 ft 476 kts 180°
2026-04-26 19:46 25.76061 -77.49156 30984 ft 475 kts 180°
2026-04-26 19:46 25.69404 -77.48766 30984 ft 475 kts 180°
2026-04-26 19:47 25.65016 -77.48498 30985 ft 475 kts 180°
2026-04-26 19:47 25.56183 -77.47950 30985 ft 475 kts 180°
2026-04-26 19:48 25.49591 -77.47543 30986 ft 474 kts 180°
2026-04-26 19:48 25.43008 -77.47135 30986 ft 474 kts 180°
2026-04-26 19:49 25.36414 -77.46728 30987 ft 474 kts 180°
2026-04-26 19:49 25.29817 -77.46321 30988 ft 474 kts 180°
2026-04-26 19:50 25.23213 -77.45915 30990 ft 473 kts 180°
2026-04-26 19:50 25.16648 -77.45511 30992 ft 473 kts 180°
2026-04-26 19:51 25.10051 -77.45105 30992 ft 473 kts 180°
2026-04-26 19:51 25.03466 -77.44701 30992 ft 473 kts 180°
2026-04-26 19:52 24.96895 -77.44305 30993 ft 473 kts 180°
2026-04-26 19:52 24.90381 -77.43914 30993 ft 472 kts 180°
2026-04-26 19:53 24.83848 -77.43523 30991 ft 473 kts 181°
2026-04-26 19:53 24.77282 -77.43130 30991 ft 473 kts 181°
2026-04-26 19:54 24.70683 -77.42736 30989 ft 473 kts 181°
2026-04-26 19:54 24.64131 -77.42345 30986 ft 473 kts 181°
2026-04-26 19:55 24.57566 -77.41954 30983 ft 474 kts 181°
2026-04-26 19:55 24.50961 -77.41560 30979 ft 474 kts 181°
2026-04-26 19:56 24.44395 -77.41170 30977 ft 475 kts 181°
2026-04-26 19:56 24.37816 -77.40779 30976 ft 475 kts 181°
2026-04-26 19:57 24.31258 -77.40389 30974 ft 470 kts 181°
2026-04-26 19:57 24.24832 -77.40008 30977 ft 468 kts 181°
2026-04-26 19:58 24.18288 -77.39621 30977 ft 470 kts 181°
2026-04-26 19:58 24.11828 -77.39238 30977 ft 470 kts 181°
2026-04-26 19:59 24.05298 -77.38852 30977 ft 470 kts 181°
2026-04-26 19:59 23.98802 -77.38468 30977 ft 470 kts 181°
2026-04-26 20:00 23.92301 -77.38084 30977 ft 470 kts 181°
2026-04-26 20:00 23.85868 -77.37705 30965 ft 470 kts 181°
2026-04-26 20:01 23.79396 -77.37324 30964 ft 470 kts 182°
2026-04-26 20:01 23.72859 -77.36939 30972 ft 471 kts 182°
2026-04-26 20:02 23.66369 -77.36558 30974 ft 470 kts 182°
2026-04-26 20:02 23.62026 -77.36303 30973 ft 470 kts 182°
2026-04-26 20:03 23.53391 -77.35883 30973 ft 465 kts 187°
2026-04-26 20:03 23.46920 -77.36181 30970 ft 465 kts 187°
2026-04-26 20:04 23.40529 -77.36409 30968 ft 465 kts 187°
2026-04-26 20:04 23.34137 -77.36614 30968 ft 465 kts 187°
2026-04-26 20:05 23.27707 -77.36812 30967 ft 464 kts 187°
2026-04-26 20:05 23.21284 -77.37006 30966 ft 463 kts 187°
2026-04-26 20:06 23.14878 -77.37198 30965 ft 463 kts 187°
2026-04-26 20:06 23.08485 -77.37389 30964 ft 463 kts 187°
2026-04-26 20:07 23.02012 -77.37579 30963 ft 462 kts 187°
2026-04-26 20:07 22.95578 -77.37766 30962 ft 462 kts 187°
2026-04-26 20:08 22.89158 -77.37953 30961 ft 461 kts 187°
2026-04-26 20:08 22.82800 -77.38138 30959 ft 461 kts 187°
2026-04-26 20:09 22.76357 -77.38325 30958 ft 460 kts 187°
2026-04-26 20:09 22.70036 -77.38507 30956 ft 453 kts 187°
2026-04-26 20:10 22.63704 -77.38693 30958 ft 454 kts 187°
2026-04-26 20:10 22.57415 -77.38876 30957 ft 455 kts 187°
2026-04-26 20:11 22.51098 -77.39058 30956 ft 454 kts 188°
2026-04-26 20:12 22.41710 -77.39329 30955 ft 453 kts 188°
2026-04-26 20:12 22.35439 -77.39511 30954 ft 453 kts 188°
2026-04-26 20:13 22.29134 -77.38814 30968 ft 468 kts 170°
2026-04-26 20:13 22.23087 -77.35960 30965 ft 481 kts 155°
2026-04-26 20:14 22.17304 -77.32439 30939 ft 480 kts 156°
2026-04-26 20:14 22.11529 -77.28924 30934 ft 480 kts 156°
2026-04-26 20:15 22.05789 -77.25427 30929 ft 481 kts 156°
2026-04-26 20:15 21.99938 -77.21865 30397 ft 486 kts 156°
2026-04-26 20:15 21.97072 -77.20115 30415 ft 469 kts 156°
2026-04-26 20:16 21.94203 -77.18372 30456 ft 473 kts 156°
2026-04-26 20:16 21.88496 -77.14906 30550 ft 483 kts 156°
2026-04-26 20:17 21.82621 -77.11339 30766 ft 491 kts 156°
2026-04-26 20:17 21.79628 -77.09522 30900 ft 495 kts 156°
2026-04-26 20:17 21.76613 -77.07694 30947 ft 498 kts 156°
2026-04-26 20:18 21.70595 -77.04038 30937 ft 494 kts 156°
2026-04-26 20:18 21.64622 -77.00415 30940 ft 493 kts 156°
2026-04-26 20:19 21.58625 -76.96783 30924 ft 493 kts 156°
2026-04-26 20:19 21.52673 -76.93179 30924 ft 493 kts 156°
2026-04-26 20:19 21.49638 -76.91345 30660 ft 500 kts 156°
2026-04-26 20:20 21.46603 -76.89510 30237 ft 499 kts 156°
2026-04-26 20:20 21.43625 -76.87707 29812 ft 491 kts 156°
2026-04-26 20:20 21.40684 -76.85928 29383 ft 482 kts 156°
2026-04-26 20:20 21.37765 -76.84163 28912 ft 474 kts 156°
2026-04-26 20:21 21.34899 -76.82438 28406 ft 469 kts 157°
2026-04-26 20:21 21.32003 -76.80969 27916 ft 463 kts 163°
2026-04-26 20:21 21.29032 -76.79635 27417 ft 464 kts 162°
2026-04-26 20:21 21.26034 -76.78262 26908 ft 462 kts 162°
2026-04-26 20:22 21.23114 -76.76920 26405 ft 458 kts 161°
2026-04-26 20:22 21.20202 -76.75577 25898 ft 454 kts 161°
2026-04-26 20:22 21.17298 -76.74238 25389 ft 450 kts 161°
2026-04-26 20:22 21.14424 -76.72912 24903 ft 447 kts 161°
2026-04-26 20:23 21.11584 -76.71603 24441 ft 444 kts 161°
2026-04-26 20:23 21.08735 -76.70289 23965 ft 443 kts 160°
2026-04-26 20:23 21.05932 -76.68996 23493 ft 439 kts 160°
2026-04-26 20:23 21.03134 -76.67705 23021 ft 433 kts 160°
2026-04-26 20:24 21.00377 -76.66434 22559 ft 428 kts 160°
2026-04-26 20:24 20.97654 -76.65181 22104 ft 426 kts 160°
2026-04-26 20:24 20.94925 -76.63925 21650 ft 425 kts 159°
2026-04-26 20:24 20.92220 -76.62680 21205 ft 422 kts 159°
2026-04-26 20:25 20.89523 -76.61439 20769 ft 419 kts 159°
2026-04-26 20:25 20.88639 -76.61031 20623 ft 418 kts 159°
2026-04-26 20:25 20.84218 -76.58998 19891 ft 411 kts 159°
2026-04-26 20:25 20.81602 -76.57796 19454 ft 408 kts 159°
2026-04-26 20:26 20.78984 -76.56593 19012 ft 405 kts 159°
2026-04-26 20:26 20.76430 -76.55421 18579 ft 401 kts 159°
2026-04-26 20:26 20.73858 -76.54238 18138 ft 398 kts 159°
2026-04-26 20:26 20.71312 -76.53070 17693 ft 391 kts 159°
2026-04-26 20:27 20.68838 -76.51935 17287 ft 383 kts 159°
2026-04-26 20:27 20.66394 -76.50815 16895 ft 380 kts 159°
2026-04-26 20:27 20.63977 -76.49707 16509 ft 380 kts 159°
2026-04-26 20:27 20.61558 -76.48599 16121 ft 378 kts 159°
2026-04-26 20:28 20.59148 -76.47495 15732 ft 374 kts 159°
2026-04-26 20:28 20.56770 -76.46405 15309 ft 371 kts 159°
2026-04-26 20:28 20.54413 -76.45326 14871 ft 364 kts 159°
2026-04-26 20:28 20.52087 -76.44262 14431 ft 357 kts 159°
2026-04-26 20:29 20.49826 -76.43228 14000 ft 354 kts 159°
2026-04-26 20:29 20.47537 -76.42182 13561 ft 352 kts 159°
2026-04-26 20:29 20.45289 -76.41155 13128 ft 350 kts 159°
2026-04-26 20:29 20.43055 -76.40134 12741 ft 347 kts 159°
2026-04-26 20:30 20.40853 -76.39126 12356 ft 344 kts 159°
2026-04-26 20:30 20.38670 -76.38130 11970 ft 341 kts 159°
2026-04-26 20:30 20.36504 -76.37140 11547 ft 330 kts 159°
2026-04-26 20:30 20.34441 -76.36196 11198 ft 317 kts 159°
2026-04-26 20:31 20.32455 -76.35290 10845 ft 304 kts 159°
2026-04-26 20:31 20.30578 -76.34434 10554 ft 291 kts 159°
2026-04-26 20:31 20.28718 -76.33585 10289 ft 286 kts 159°
2026-04-26 20:31 20.26893 -76.32755 9995 ft 284 kts 159°
2026-04-26 20:32 20.25110 -76.31943 9734 ft 280 kts 159°
2026-04-26 20:32 20.23341 -76.31137 9489 ft 276 kts 159°
2026-04-26 20:32 20.21583 -76.30335 9248 ft 272 kts 159°
2026-04-26 20:32 20.19878 -76.29559 9004 ft 269 kts 159°
2026-04-26 20:33 20.18237 -76.28719 8760 ft 263 kts 146°
2026-04-26 20:33 20.16859 -76.27447 8548 ft 264 kts 139°
2026-04-26 20:33 20.15494 -76.26102 8319 ft 270 kts 139°
2026-04-26 20:33 20.14134 -76.24756 8083 ft 268 kts 138°
2026-04-26 20:34 20.12802 -76.23426 7831 ft 262 kts 138°
2026-04-26 20:34 20.11495 -76.22118 7548 ft 261 kts 138°
2026-04-26 20:34 20.10179 -76.20798 7263 ft 260 kts 138°
2026-04-26 20:34 20.08868 -76.19481 6978 ft 259 kts 138°
2026-04-26 20:35 20.07569 -76.18175 6695 ft 258 kts 138°
2026-04-26 20:35 20.06254 -76.16854 6407 ft 257 kts 138°
2026-04-26 20:35 20.04940 -76.15588 6123 ft 255 kts 147°
2026-04-26 20:35 20.03381 -76.14729 5865 ft 252 kts 158°
2026-04-26 20:36 20.01765 -76.13966 5577 ft 251 kts 156°
2026-04-26 20:36 20.00176 -76.13213 5331 ft 248 kts 157°
2026-04-26 20:36 19.98606 -76.12478 5071 ft 245 kts 157°
2026-04-26 20:36 19.97077 -76.11660 4778 ft 244 kts 142°
2026-04-26 20:37 19.95995 -76.10312 4529 ft 241 kts 120°
2026-04-26 20:37 19.95594 -76.08634 4285 ft 237 kts 88°
2026-04-26 20:37 19.95716 -76.06899 4024 ft 235 kts 87°
2026-04-26 20:37 19.95798 -76.05169 3740 ft 235 kts 87°
2026-04-26 20:38 19.95931 -76.03430 3451 ft 234 kts 86°
2026-04-26 20:38 19.96050 -76.01720 3164 ft 233 kts 88°
2026-04-26 20:38 19.96158 -76.00002 2875 ft 233 kts 86°
2026-04-26 20:38 19.96252 -75.98312 2642 ft 225 kts 89°
2026-04-26 20:39 19.96312 -75.96684 2383 ft 217 kts 88°
2026-04-26 20:39 19.96384 -75.95639 2152 ft 211 kts 88°
2026-04-26 20:39 19.96519 -75.93675 1783 ft 186 kts 88°
2026-04-26 20:39 19.96602 -75.92377 1524 ft 171 kts 88°
2026-04-26 20:40 19.96676 -75.91169 1330 ft 162 kts 88°
2026-04-26 20:40 19.96748 -75.89936 1122 ft 170 kts 88°
2026-04-26 20:40 19.96825 -75.88722 878 ft 159 kts 88°
2026-04-26 20:40 19.96970 -75.87573 567 ft 155 kts 88°
2026-04-26 20:41 19.96953 -75.86448 417 ft 152 kts 93°
2026-04-26 20:41 19.96978 -75.85357 250 ft 145 kts 91°
2026-04-26 20:41 19.96983 -75.84389 243 ft 109 kts 89°
2026-04-26 20:41 19.96986 -75.83927 244 ft 34 kts 89°
2026-04-26 20:42 19.96992 -75.83797 244 ft 12 kts 67°
2026-04-26 20:42 19.97055 -75.83785 244 ft 9 kts 323°
2026-04-26 20:42 19.97102 -75.83830 244 ft 8 kts 316°
2026-04-26 20:42 19.97130 -75.83857 244 ft 3 kts 316°
2026-04-26 20:43 19.97145 -75.83875 245 ft 2 kts 309°
2026-04-26 20:43 19.97162 -75.83909 246 ft 8 kts 284°
2026-04-26 20:43 19.97142 -75.83992 245 ft 14 kts 242°
2026-04-26 20:43 19.97137 -75.84043 245 ft 4 kts 305°
2026-04-26 20:44 19.97150 -75.84051 246 ft 0 kts 354°
2026-04-26 20:44 19.97169 -75.84032 247 ft 2 kts 79°
2026-04-26 20:44 19.97169 -75.84009 245 ft 0 kts 90°
2026-04-26 20:44 19.97168 -75.83990 246 ft 4 kts 94°
2026-04-26 20:45 19.97165 -75.83958 246 ft 0 kts 92°
2026-04-26 20:45 19.97166 -75.83948 246 ft 1 kts 77°
2026-04-26 20:45 19.97173 -75.83932 246 ft 0 kts 51°